Location: Chaumontel
(49.1247°N, 2.4324°E)
Time: 00:34:30
(UTC+00:00)

IRIDIUM 103 - Pass Details

Date: 15 May 2025
Orbit: 775 x 779 km, 86.4° (Epoch: 12 June)

Event Time Altitude Azimuth Distance (km) Brightness Sun altitude
Exits shadow 03:08:16 - 251° (WSW) 2,482 6.4 -8.6°
Reaches altitude 10° 03:08:55 10° 257° (WSW) 2,334 6.3 -8.5°
Maximum altitude 03:11:55 15° 292° (WNW) 1,992 6.2 -8.2°
Drops below altitude 10° 03:14:57 10° 328° (NNW) 2,343 6.9 -7.8°
Sets 03:18:21 0° 351° (N) 3,276 8.0 -7.4°
